Temperature
21 21 20 20 20 20 20 20 20 19 19 19 19 19 19 19 19 19 19 18 18 18 18 18 18 18 18 18 18 18 18 18 18 17 17 17 17 17 17 17 17 17 16
21 21 20 20 20 20 20 20 19 19 19 19 19 19 19 19 19 18 18 18 18 18 18 18 18 18 18 18 18 18 17 17 17 17 17 17 17 17 17 17 16 16 16
21 20 20 20 20 19 19 19 19 19 19 19 19 19 19 18 18 18 18 18 18 18 18 18 18 18 18 17 17 17 17 17 17 17 17 17 17 16 16 16 16 16 16
21 20 20 20 20 20 19 19 19 19 19 19 19 19 18 18 18 18 18 18 18 18 18 18 17 17 17 17 17 17 17 17 16 16 16 16 16 16 16 16 16 16 16
21 20 20 20 20 19 19 19 19 19 19 19 18 18 18 18 18 18 18 18 18 17 17 17 17 17 17 17 16 16 16 16 16 16 16 15 15 16 15 15 15 15 15
21 20 20 20 19 19 19 19 19 19 18 18 18 18 18 18 18 18 18 18 17 17 17 17 17 17 17 17 16 16 16 16 16 15 15 15 15 15 15 15 15 15 15
21 20 20 20 19 19 19 19 19 19 18 18 18 18 18 18 18 18 17 17 17 17 17 16 16 16 16 16 16 16 16 15 15 15 15 15 15 15 14 14 14 14 14
20 20 20 19 19 19 18 18 18 18 18 18 18 18 18 18 17 17 17 17 17 16 16 16 16 16 16 16 16 15 15 15 15 15 15 15 15 14 14 14 14 14 14
20 19 19 19 18 18 18 18 18 18 18 18 18 17 17 17 17 17 17 16 16 16 16 16 16 16 16 15 15 15 15 15 15 14 14 14 14 14 14 14 14 13 13
19 19 19 18 18 18 18 18 18 18 18 17 17 17 17 17 17 17 17 16 16 16 15 15 15 15 15 15 15 15 14 14 14 14 14 14 14 14 14 14 13 13 13
19 18 18 18 18 18 18 18 18 17 17 17 17 17 17 17 17 17 16 16 16 15 15 15 15 15 15 15 15 14 14 14 14 14 14 14 13 13 13 13 13 13 13
18 18 18 17 17 17 17 17 17 17 17 17 17 17 16 17 17 16 16 16 16 15 15 15 15 15 15 14 14 14 14 13 13 13 13 13 13 13 13 13 13 13 13
17 17 17 17 17 17 17 17 17 17 16 16 16 16 16 16 16 16 16 15 15 15 14 14 14 14 14 14 14 13 13 13 13 12 12 12 12 12 12 12 12 12 12
17 17 17 17 17 17 17 16 16 16 16 16 16 15 15 15 15 15 15 15 14 14 14 14 14 13 13 13 13 13 13 12 12 12 12 12 12 12 12 12 12 12 12
17 16 16 16 16 16 16 16 16 16 16 16 15 15 15 15 15 15 15 14 14 14 13 13 13 13 12 12 12 12 12 12 12 12 12 12 12 12 12 12 11 11 11
16 16 16 16 16 16 16 16 15 15 15 15 15 15 15 15 15 14 14 14 14 13 13 13 12 12 12 12 12 12 12 12 11 11 11 11 11 11 11 11 11 11 11
16 16 16 16 15 15 15 15 15 15 15 15 15 15 14 14 14 14 13 13 13 13 12 12 12 12 11 11 11 11 11 11 11 11 11 11 11 11 11 11 11 11 10
15 15 15 15 15 15 15 15 14 14 14 14 14 14 14 14 13 13 13 13 12 12 12 11 11 11 11 11 11 11 11 11 11 11 10 10 10 10 10 10 10 10 10
15 15 15 15 15 15 15 14 14 14 14 14 14 13 13 13 13 12 12 12 12 11 11 11 11 11 11 11 10 10 10 10 10 10 10 10 10 10 9 9 9 9 9
14 14 14 14 14 14 14 14 14 14 14 13 13 13 12 12 12 12 12 11 11 11 11 11 11 10 10 10 10 10 10 10 10 10 9 9 9 9 9 9 9 9 9
14 14 14 14 14 14 14 14 14 13 13 13 12 12 12 12 12 11 11 11 11 11 11 10 10 10 10 10 10 10 9 9 9 9 9 9 9 8 8 8 8 8 8
13 13 13 13 14 14 13 13 13 13 12 12 12 12 11 11 11 11 11 11 11 10 10 10 10 10 9 9 9 9 9 9 9 8 8 8 8 8 8 8 8 8 8
13 13 13 13 13 13 13 13 12 12 12 12 12 11 11 11 11 11 11 10 10 10 10 10 9 9 9 9 9 9 8 8 8 8 8 8 8 8 8 8 8 8 8
13 13 13 12 12 12 12 12 12 12 12 12 11 11 11 11 10 10 10 10 10 9 9 9 9 9 9 9 8 8 8 8 8 7 7 7 7 7 7 7 7 7 7
12 12 12 12 12 12 12 12 12 11 11 11 11 11 11 10 10 10 10 10 9 9 9 9 9 9 8 8 8 8 7 7 7 7 7 7 7 7 7 6 7 7 7
11 12 12 12 11 11 11 11 11 11 11 11 11 11 10 10 10 10 9 9 9 9 9 9 8 8 8 8 7 7 7 7 7 7 7 6 6 6 6 6 6 6 6
Wind_Speed
8 6 5 6 5 4 3 3 2 2 2 2 3 3 2 2 2 3 3 3 3 2 2 2 3 2 2 2 2 2 2 1 2 3 2 1 1 2 2 4 5 6 7
8 7 6 6 5 5 4 4 4 3 3 3 3 3 3 3 3 3 4 3 3 3 2 2 2 2 2 2 2 2 2 2 2 4 3 3 3 2 2 3 3 4 5
7 7 6 6 6 5 5 4 4 4 4 4 4 3 3 2 2 2 2 2 2 2 2 2 2 2 2 2 1 2 2 3 2 3 4 2 2 2 2 3 4 2 4
6 6 6 5 5 5 4 4 4 4 4 4 4 4 3 2 2 2 2 2 2 2 2 2 2 2 2 2 2 2 2 3 3 3 3 3 2 2 2 3 3 2 4
5 5 5 5 4 4 5 4 4 4 5 4 3 3 3 4 4 3 3 4 3 2 2 2 2 1 1 0 1 1 2 2 2 3 3 3 3 2 3 3 4 3 4
5 5 5 5 4 4 4 4 4 4 4 3 3 3 3 4 2 2 3 2 3 2 2 2 2 1 1 1 0 1 1 2 2 3 3 3 3 3 3 4 4 4 4
4 4 4 4 4 4 4 4 4 4 3 3 4 4 3 2 2 3 4 4 3 3 3 2 4 3 2 1 1 1 2 3 3 3 4 4 4 3 3 4 4 5 5
4 4 4 4 4 4 4 4 4 3 4 4 4 4 3 3 2 2 4 4 4 3 3 3 3 1 2 0 1 2 3 3 4 3 3 4 4 4 4 5 5 5 4
4 4 3 4 4 4 4 3 3 3 4 4 4 4 3 3 3 3 3 4 3 4 4 3 3 2 1 1 1 2 3 3 4 3 4 4 4 5 4 3 4 4 4
2 2 2 2 3 4 4 3 3 3 4 4 4 4 4 3 4 4 5 4 3 3 2 2 2 3 3 2 2 2 3 3 4 4 3 4 4 4 4 3 3 4 4
1 2 2 3 3 3 3 3 3 4 4 4 4 4 4 4 5 6 6 4 3 3 3 2 2 4 5 4 3 2 3 3 3 3 3 3 3 2 2 2 2 3 3
2 3 3 3 4 4 3 4 4 5 5 4 4 3 3 3 4 5 5 4 2 2 2 1 2 4 3 3 2 3 3 2 2 3 3 3 2 2 2 2 3 3 4
2 3 3 3 4 4 4 5 5 4 4 4 3 3 2 1 1 3 3 3 1 1 1 2 3 3 2 2 3 4 3 2 2 3 3 3 2 2 2 2 2 3 4
3 3 3 4 4 3 3 3 3 3 3 3 3 3 2 1 1 1 0 0 0 0 0 1 2 2 2 2 2 3 3 2 2 3 3 3 2 2 2 2 2 2 2
3 3 4 4 4 2 2 0 1 1 2 3 3 2 3 2 2 3 2 2 1 1 1 1 1 2 2 2 2 3 2 2 2 3 3 3 3 3 3 2 2 2 2
3 3 3 3 2 2 2 1 5 2 1 0 1 2 1 2 2 2 2 2 2 3 2 2 2 2 2 2 3 3 3 3 2 2 2 3 3 3 3 3 3 2 3
4 3 3 3 2 2 2 3 1 2 4 4 2 2 3 3 3 2 2 2 2 3 2 2 2 2 2 2 2 2 2 2 2 2 2 2 3 3 3 3 3 3 3
3 2 2 2 2 2 2 3 3 3 2 0 2 3 4 4 4 3 3 3 1 1 2 2 2 1 2 2 2 2 2 2 2 2 2 2 2 2 3 3 4 4 4
2 2 2 2 2 2 2 2 2 2 2 1 1 1 2 3 3 3 3 1 2 2 2 2 2 2 2 1 1 1 2 1 1 2 2 2 3 3 3 4 4 4 3
1 2 1 2 2 1 1 1 1 2 1 1 1 1 1 1 1 1 2 2 2 2 2 2 1 1 1 1 1 1 1 1 1 1 2 2 2 3 3 4 3 4 3
2 2 1 2 2 1 1 1 1 1 1 1 2 2 3 1 1 2 2 2 2 1 1 1 1 1 0 1 1 1 1 1 1 1 1 2 2 3 3 3 3 3 3
2 0 1 1 1 1 1 1 0 0 0 1 1 2 4 2 2 2 2 2 1 1 1 1 1 1 1 1 1 1 1 1 2 2 2 2 2 3 3 3 3 3 3
1 1 1 1 1 1 1 1 1 1 1 0 0 1 2 2 1 1 1 1 0 0 1 1 1 1 2 2 2 2 2 2 2 2 2 3 3 3 2 2 3 3 4
1 1 0 0 0 0 1 1 0 0 0 0 0 1 1 1 1 0 0 0 1 1 1 1 1 2 3 3 3 3 4 4 3 3 3 3 3 3 3 3 3 4 4
1 1 1 1 0 0 1 1 1 0 0 0 0 0 0 1 1 0 1 1 1 1 1 1 1 2 3 4 4 4 5 5 4 4 3 3 3 3 3 3 3 3 4
2 1 1 1 1 0 0 1 1 1 0 0 1 1 0 0 1 1 1 1 1 1 1 2 3 4 4 4 6 7 6 5 4 4 4 3 3 3 4 4 5 4 4
Wind_Direction
173 175 173 178 186 191 197 187 194 190 179 178 193 193 196 208 214 219 222 209 207 216 236 227 230 239 281 294 293 288 291 282 271 286 289 284 275 271 212 221 224 210 204
171 170 176 177 184 191 196 197 194 194 198 200 205 205 212 217 221 223 232 211 213 218 222 222 226 234 254 283 299 315 310 296 277 281 283 272 267 250 244 256 255 245 221
168 173 177 183 188 192 195 197 195 197 206 209 207 215 226 225 219 222 232 217 216 218 205 214 225 213 235 260 270 285 285 297 275 268 277 277 284 298 281 279 275 263 260
168 178 178 187 192 193 197 197 199 205 215 221 215 216 220 231 216 209 216 225 227 225 208 218 235 224 235 260 262 270 282 293 292 288 281 281 275 283 284 283 284 272 270
164 177 181 186 190 194 198 201 199 201 214 219 225 225 225 233 228 208 205 215 220 232 220 214 221 200 172 281 294 307 302 295 295 292 282 294 306 318 301 285 290 286 273
166 180 179 183 194 200 200 194 196 198 211 209 217 229 240 255 242 202 221 225 209 214 229 239 215 184 161 164 202 315 303 288 301 301 304 302 300 304 302 301 303 304 289
172 180 182 182 194 199 205 197 202 205 209 207 216 221 228 266 249 223 220 236 227 212 215 234 264 257 186 204 255 261 278 278 265 266 288 296 300 302 301 296 294 294 285
184 188 186 190 194 194 200 201 201 203 206 210 220 223 222 239 233 239 229 234 226 211 215 221 241 252 265 272 269 274 274 277 270 264 267 277 290 300 290 284 278 280 279
194 189 182 189 197 198 203 199 196 203 210 212 218 224 220 227 205 207 221 240 228 216 217 222 225 210 180 127 252 263 279 293 292 276 260 269 285 299 306 305 296 294 292
199 187 178 193 202 201 200 199 203 215 218 217 217 217 217 217 201 205 216 238 235 229 211 196 206 190 178 174 217 243 264 285 303 307 283 274 271 274 274 261 284 294 298
236 213 204 212 221 213 203 206 210 217 219 219 223 220 218 212 198 204 213 235 247 234 218 200 178 163 174 186 208 234 244 268 285 286 283 273 267 260 248 256 267 265 276
238 220 218 221 230 225 216 219 216 216 221 218 219 225 224 207 199 196 198 224 268 262 246 202 149 149 172 192 211 236 249 280 282 288 289 287 290 296 286 274 268 257 246
243 233 226 226 232 228 221 221 219 219 227 223 220 226 234 200 158 169 186 191 226 274 301 142 147 163 165 200 216 233 257 267 271 282 289 292 296 299 292 279 270 271 267
243 237 230 222 227 223 224 229 225 228 234 234 232 229 215 208 148 125 164 156 116 240 101 117 145 187 228 235 242 250 249 256 270 283 296 295 294 287 282 279 280 274 276
245 237 241 232 222 211 199 214 227 237 244 240 240 228 222 225 217 194 200 216 228 201 154 198 227 216 221 229 232 238 242 237 254 266 281 295 299 298 288 288 288 294 294
244 245 247 240 213 208 173 88 34 23 30 35 202 206 205 171 164 158 150 170 196 181 177 220 221 218 228 232 239 246 248 249 255 272 274 283 288 293 301 307 304 300 300
247 241 243 242 221 208 190 186 186 40 39 44 71 109 138 147 141 130 112 118 173 176 202 233 230 227 246 265 272 274 276 275 275 279 279 293 301 303 306 307 306 307 299
254 232 239 239 224 206 205 215 204 193 189 178 50 101 136 152 156 151 135 110 124 210 231 228 230 231 239 252 263 281 294 288 277 287 304 315 315 316 320 316 314 310 301
261 242 242 245 236 226 213 213 204 192 194 169 122 73 111 138 147 167 166 184 211 240 252 247 243 248 257 267 289 305 311 324 336 328 331 326 319 320 322 320 316 310 296
241 256 254 264 260 220 213 223 214 205 189 139 129 126 145 145 133 158 201 248 243 239 260 274 277 279 295 303 296 290 297 325 334 328 326 318 317 317 311 307 308 308 310
242 222 220 253 250 235 223 230 224 209 167 151 153 155 172 184 186 192 220 243 264 276 280 291 301 301 349 348 308 289 301 322 332 322 325 319 320 315 305 304 305 307 316
302 290 255 275 295 347 312 309 345 31 113 147 140 146 182 215 223 203 216 225 249 290 305 328 344 1 7 2 348 343 343 335 338 330 315 310 303 300 305 308 309 320 325
301 311 309 313 328 37 14 12 17 31 49 46 95 150 185 234 236 212 214 219 224 345 24 38 34 20 24 28 27 23 15 5 357 348 333 321 311 306 307 310 314 319 322
289 294 320 306 354 56 72 59 33 23 45 193 180 161 194 228 260 248 221 116 106 86 57 57 43 13 28 39 36 41 35 20 3 352 336 321 319 323 324 319 311 307 308
349 7 48 71 83 136 144 147 168 71 349 289 76 60 12 287 295 311 77 92 98 94 79 67 60 44 36 32 43 45 44 42 21 354 337 327 316 318 319 311 308 308 310
17 25 19 13 43 57 112 110 58 22 349 13 58 74 68 35 46 83 90 93 104 86 73 58 53 56 60 58 58 56 55 40 14 352 332 328 326 324 320 312 308 306 304
Height
1508 1510 1513 1514 1516 1517 1519 1520 1521 1522 1522 1523 1523 1523 1523 1523 1523 1523 1523 1523 1524 1524 1524 1525 1525 1525 1526 1526 1526 1527 1527 1527 1525 1525 1524 1524 1523 1522 1521 1520 1519 1518 1517
1507 1509 1511 1513 1514 1515 1517 1518 1519 1519 1520 1521 1521 1521 1521 1521 1521 1521 1521 1521 1522 1522 1522 1522 1523 1523 1523 1524 1524 1524 1524 1524 1523 1522 1521 1521 1520 1519 1518 1517 1516 1515 1514
1506 1507 1509 1511 1512 1513 1514 1515 1516 1517 1518 1518 1518 1519 1519 1519 1519 1519 1519 1519 1519 1520 1520 1520 1520 1521 1521 1521 1521 1521 1521 1521 1520 1519 1518 1518 1517 1516 1515 1514 1513 1512 1511
1504 1505 1507 1508 1510 1511 1512 1513 1514 1515 1515 1516 1516 1516 1516 1517 1517 1517 1517 1517 1517 1517 1517 1517 1517 1518 1518 1518 1518 1518 1517 1517 1517 1516 1515 1514 1514 1513 1512 1510 1509 1509 1508
1501 1503 1504 1506 1507 1509 1510 1511 1511 1512 1513 1513 1514 1514 1514 1514 1514 1514 1514 1514 1514 1514 1514 1514 1514 1515 1515 1515 1515 1514 1514 1514 1513 1513 1512 1511 1510 1509 1509 1508 1507 1505 1505
1499 1501 1502 1504 1505 1506 1507 1508 1509 1509 1510 1511 1511 1511 1511 1512 1512 1511 1511 1511 1511 1511 1511 1511 1511 1511 1511 1512 1511 1512 1512 1511 1510 1510 1509 1508 1507 1507 1506 1505 1504 1502 1501
1497 1499 1500 1501 1502 1503 1504 1505 1505 1506 1507 1507 1508 1508 1508 1508 1508 1508 1508 1508 1507 1506 1507 1507 1508 1508 1508 1508 1507 1508 1508 1508 1508 1507 1506 1505 1504 1503 1502 1502 1501 1500 1497
1495 1496 1498 1498 1499 1500 1501 1501 1502 1503 1503 1503 1504 1504 1505 1504 1505 1504 1504 1504 1503 1502 1503 1503 1504 1504 1504 1504 1504 1504 1504 1504 1504 1503 1503 1502 1501 1500 1499 1498 1497 1496 1495
1493 1494 1494 1495 1496 1496 1497 1498 1498 1499 1500 1500 1500 1501 1501 1501 1501 1501 1501 1501 1500 1499 1500 1500 1500 1500 1500 1500 1500 1500 1499 1500 1500 1499 1499 1498 1497 1496 1495 1494 1493 1492 1490
1489 1490 1491 1492 1493 1493 1494 1494 1495 1496 1496 1496 1497 1497 1497 1497 1497 1497 1497 1497 1497 1497 1496 1496 1496 1496 1496 1496 1496 1496 1495 1495 1495 1495 1494 1493 1493 1492 1491 1491 1490 1489 1487
1487 1488 1488 1489 1490 1490 1491 1492 1492 1492 1493 1493 1493 1493 1493 1493 1493 1493 1493 1494 1493 1493 1493 1492 1492 1493 1492 1492 1492 1492 1492 1492 1491 1491 1490 1489 1488 1488 1487 1487 1486 1485 1484
1484 1484 1485 1486 1487 1487 1487 1488 1489 1489 1489 1489 1489 1489 1489 1489 1489 1489 1489 1490 1490 1489 1489 1489 1489 1489 1489 1489 1489 1489 1489 1488 1488 1487 1486 1485 1485 1484 1483 1483 1482 1482 1481
1481 1481 1482 1483 1483 1484 1484 1485 1486 1486 1486 1486 1486 1485 1485 1485 1485 1485 1485 1485 1486 1486 1485 1485 1485 1485 1485 1485 1485 1485 1485 1484 1484 1484 1483 1483 1482 1481 1480 1480 1478 1477 1477
1477 1478 1478 1479 1479 1480 1481 1482 1482 1482 1482 1482 1482 1482 1482 1481 1481 1481 1481 1481 1482 1481 1482 1482 1482 1482 1482 1482 1482 1481 1481 1481 1481 1480 1480 1479 1479 1478 1477 1477 1475 1474 1473
1474 1475 1475 1476 1476 1477 1477 1477 1478 1478 1479 1479 1479 1478 1478 1478 1478 1478 1477 1477 1478 1478 1478 1478 1478 1478 1478 1478 1479 1478 1478 1478 1478 1478 1477 1476 1475 1475 1474 1474 1472 1471 1470
1471 1471 1472 1473 1473 1473 1473 1473 1474 1475 1475 1475 1476 1476 1475 1475 1475 1475 1475 1474 1474 1475 1475 1474 1474 1474 1474 1475 1475 1475 1475 1475 1475 1474 1473 1473 1472 1472 1471 1470 1469 1468 1466
1468 1469 1469 1470 1470 1470 1470 1470 1470 1471 1471 1472 1472 1472 1472 1471 1471 1471 1471 1471 1472 1472 1472 1471 1471 1471 1472 1472 1472 1472 1472 1472 1472 1471 1471 1470 1470 1469 1468 1467 1466 1464 1463
1465 1466 1466 1467 1467 1467 1467 1468 1468 1467 1468 1468 1468 1468 1468 1468 1469 1468 1468 1468 1469 1469 1469 1469 1468 1469 1469 1469 1469 1469 1469 1469 1468 1468 1468 1467 1467 1466 1465 1464 1463 1461 1460
1463 1463 1464 1464 1465 1465 1464 1465 1465 1465 1465 1465 1464 1465 1465 1466 1466 1466 1466 1466 1466 1466 1466 1466 1466 1466 1466 1466 1466 1466 1466 1466 1465 1465 1464 1464 1463 1463 1462 1461 1460 1459 1458
1460 1461 1461 1462 1462 1462 1462 1463 1463 1463 1463 1463 1463 1463 1463 1463 1463 1463 1463 1464 1464 1464 1464 1464 1464 1464 1463 1463 1463 1463 1463 1462 1462 1462 1461 1461 1461 1460 1459 1458 1457 1457 1456
1459 1459 1459 1460 1460 1460 1461 1461 1461 1461 1461 1461 1461 1461 1461 1461 1461 1461 1461 1462 1462 1462 1462 1462 1461 1461 1461 1460 1460 1460 1459 1459 1459 1458 1458 1458 1457 1457 1456 1455 1455 1454 1453
1457 1457 1458 1458 1459 1459 1459 1459 1459 1459 1460 1460 1459 1459 1460 1460 1460 1460 1460 1460 1460 1459 1459 1459 1459 1459 1458 1458 1457 1456 1456 1456 1456 1455 1455 1455 1455 1454 1454 1452 1452 1452 1451
1456 1456 1456 1457 1457 1457 1457 1457 1457 1458 1458 1458 1459 1458 1458 1459 1458 1458 1458 1458 1458 1458 1458 1457 1457 1456 1456 1455 1455 1454 1454 1453 1453 1453 1453 1453 1452 1452 1451 1451 1450 1450 1449
1455 1454 1454 1454 1455 1455 1455 1455 1456 1456 1457 1457 1457 1457 1457 1457 1457 1456 1456 1456 1456 1456 1456 1455 1455 1455 1454 1453 1453 1453 1452 1452 1451 1451 1451 1450 1450 1449 1449 1449 1448 1447 1447
1453 1453 1453 1453 1454 1454 1454 1455 1455 1456 1456 1457 1456 1456 1456 1456 1455 1455 1454 1454 1454 1455 1455 1455 1454 1454 1453 1452 1452 1451 1451 1450 1450 1449 1449 1448 1448 1447 1447 1446 1446 1445 1444
1453 1453 1453 1453 1453 1454 1454 1454 1455 1455 1455 1456 1455 1455 1455 1455 1454 1454 1453 1453 1453 1454 1454 1453 1453 1452 1451 1451 1450 1449 1449 1448 1448 1447 1447 1446 1445 1445 1444 1443 1443 1442 1441